[[{"header":{"parameterUnit":"m.s-1","parameterCategory":2,"la1":30.2991,"la2":30.254,"lo1":-89.0895,"lo2":-89.0444,"dy":0.0017,"dx":0.0017,"nx":28,"ny":28,"refTime":"2025-03-09T21:00:00:Z","depth":"0","parameterNumber":2,"parameterNumberName":"U-component_of_CURRENTS"},"data":[0,0,0,0,0,0,0,0,0,0,0,0,0,0,0,0,0,0,0,0,0,0,0,0,0,0,0,0,0,0,0,0,0,0,0,0,0,0,0,0,0,0,0,0,0,0,0,0,0,0,0,0,0,0,0,0,0,0,-0.2234,-0.2234,0,-0.2303,-0.2303,-0.2304,-0.2295,-0.2294,-0.2293,-0.2292,-0.2451,-0.2456,-0.2461,0,0,0,0,0,0,0,0,0,0,0,0,0,-0.2135,-0.2136,-0.2234,-0.2235,-0.2236,-0.2303,-0.2304,-0.2304,-0.2295,-0.2294,-0.2293,-0.2292,-0.2449,-0.2455,-0.2462,0,0,0,0,0,0,0,0,0,0,0,0,0,-0.2187,-0.2137,-0.2233,-0.224,-0.2241,-0.2303,-0.2304,-0.2305,-0.2296,-0.2294,-0.2293,-0.2291,-0.2447,-0.2455,-0.2462,-0.2541,0,0,-0.2486,-0.249,0,0,0,0,0,0,0,0,-0.2184,-0.219,-0.2238,-0.224,-0.2241,-0.229,-0.2327,-0.2389,-0.2296,-0.2274,-0.2292,-0.229,-0.2408,-0.2418,-0.2432,-0.2548,-0.2555,-0.2487,-0.2492,-0.2495,-0.2497,0,0,0,0,0,0,0,-0.218,-0.2187,-0.226,-0.2239,-0.2241,-0.2254,-0.2259,-0.2338,-0.2349,-0.2276,-0.2275,-0.2286,-0.2409,-0.2424,-0.2436,-0.2558,-0.2487,-0.2494,-0.2498,-0.2501,-0.2628,-0.2627,0,0,0,0,0,0,-0.2174,-0.2184,-0.2258,-0.2262,-0.221,-0.2257,-0.2262,-0.2275,-0.2346,-0.2355,-0.2287,-0.2285,-0.2412,-0.2427,-0.2441,-0.2474,-0.2495,-0.2502,-0.2507,-0.263,-0.2628,-0.2627,0,0,0,0,0,0,-0.2172,-0.218,-0.2255,-0.2225,-0.2236,-0.226,-0.2274,-0.2277,-0.2288,-0.2354,-0.2364,-0.2294,-0.2411,-0.243,-0.2485,-0.2483,-0.2506,-0.2513,-0.2631,-0.2629,-0.2627,-0.2583,0,0,0,0,0,0,-0.2169,-0.2179,-0.2183,-0.2225,-0.2237,-0.2284,-0.2276,-0.228,-0.2298,-0.2295,-0.2365,-0.2377,-0.2411,-0.2473,-0.2493,-0.2494,-0.2519,-0.2633,-0.263,-0.2628,-0.2586,-0.2579,-0.2574,0,0,0,0,0,-0.2165,-0.218,-0.2183,-0.2192,-0.2243,-0.2284,-0.2292,-0.2303,-0.2299,-0.2306,-0.2336,-0.2375,-0.247,-0.248,-0.2503,-0.2506,-0.2634,-0.2631,-0.2628,-0.2588,-0.2581,-0.2574,0,0,0,0,0,0,-0.2139,-0.2182,-0.2186,-0.2213,-0.2242,-0.2283,-0.2295,-0.2307,-0.2337,-0.2335,-0.2386,-0.2402,-0.244,-0.2479,-0.2487,-0.2527,-0.255,-0.2551,-0.2511,-0.2504,-0.2499,-0.2493,-0.2525,0,0,0,0,0,-0.2137,-0.2155,-0.2198,-0.2216,-0.2232,-0.2264,-0.2282,-0.2293,-0.2327,-0.2338,-0.238,-0.2416,-0.245,-0.248,-0.252,-0.2572,-0.2565,-0.2576,-0.257,-0.2565,-0.2571,-0.2537,-0.2529,-0.2617,-0.2617,-0.2617,0,0,-0.2131,-0.2157,-0.2166,-0.2211,-0.2234,-0.2263,-0.227,-0.2299,-0.2315,-0.2357,-0.2388,-0.2411,-0.2457,-0.2487,-0.2508,-0.2522,-0.253,-0.2561,-0.2557,-0.2566,-0.2533,-0.2525,-0.2517,-0.2615,-0.2616,-0.2616,0,0,-0.2131,-0.2153,-0.2169,-0.2197,-0.2236,-0.226,-0.2268,-0.2309,-0.2316,-0.2357,-0.2367,-0.2377,-0.246,-0.2464,-0.2485,-0.2476,-0.2498,-0.249,-0.2471,-0.2438,-0.243,-0.2424,-0.238,-0.237,-0.249,-0.249,-0.249,0,-0.212,-0.2147,-0.2179,-0.2205,-0.2226,-0.2258,-0.2281,-0.2303,-0.235,-0.2355,-0.2358,-0.2406,-0.2441,-0.2458,-0.2441,-0.2466,-0.245,-0.2499,-0.243,-0.2424,-0.2418,-0.2375,-0.2365,-0.2487,-0.2488,-0.2488,-0.2488,0,-0.2134,-0.2157,-0.2171,-0.2211,-0.2239,-0.2265,-0.2303,-0.2319,-0.2332,-0.2347,-0.2359,-0.2382,-0.2404,-0.2406,-0.2433,-0.2409,-0.2409,-0.2424,-0.245,-0.2407,-0.2364,-0.2354,-0.2484,-0.2485,-0.2485,-0.2486,0,0,-0.2099,-0.2167,-0.2168,-0.2184,-0.2243,-0.2263,-0.2295,-0.2323,-0.2325,-0.2348,-0.2342,-0.2369,-0.2364,-0.2383,-0.2397,-0.2371,-0.2304,-0.2384,-0.2384,-0.2345,-0.2221,-0.212,-0.2099,-0.2311,-0.231,-0.2309,-0.22,0,-0.2094,-0.2133,-0.2174,-0.2204,-0.2226,-0.2268,-0.229,-0.2317,-0.2334,-0.2336,-0.2337,-0.234,-0.2362,-0.2357,-0.2337,-0.2326,-0.2281,-0.2332,-0.2268,-0.2265,-0.2183,-0.2085,-0.1982,-0.1868,-0.219,-0.2188,-0.2187,0,-0.2084,-0.2114,-0.2143,-0.2191,-0.2203,-0.2224,-0.2251,-0.2277,-0.2296,-0.2306,-0.2307,-0.2314,-0.2296,-0.2304,-0.2251,-0.2288,-0.2247,-0.2224,-0.222,-0.2139,-0.2145,-0.1967,-0.1838,-0.1815,-0.2172,-0.2173,-0.2175,0,-0.2023,-0.2083,-0.21,-0.212,-0.2185,-0.2193,-0.2221,-0.2253,-0.2263,-0.2274,-0.2269,-0.2266,-0.2246,-0.2214,-0.2179,-0.2213,-0.21,-0.2137,-0.1998,-0.1991,-0.1897,-0.1882,-0.1741,-0.2061,-0.2062,-0.2062,-0.2062,0,-0.1993,-0.2001,-0.2069,-0.2076,-0.2084,-0.2146,-0.2148,-0.2178,-0.2205,-0.2199,-0.2237,-0.2219,-0.2221,-0.2172,-0.2148,-0.2029,-0.2067,-0.1965,-0.1944,-0.1874,-0.1859,-0.1833,-0.1873,-0.2058,-0.2059,-0.206,-0.206,0,-0.1915,-0.1965,-0.1981,-0.2041,-0.2055,-0.2054,-0.2103,-0.2101,-0.2144,-0.2135,-0.2133,-0.2161,-0.2096,-0.2069,-0.1999,-0.1959,-0.1822,-0.1817,-0.1726,-0.1694,-0.1545,-0.1587,-0.1452,-0.1413,-0.1643,-0.164,-0.1637,0,-0.1876,-0.1878,-0.1931,-0.1934,-0.1957,-0.1975,-0.1982,-0.2049,-0.2057,-0.2091,-0.2073,-0.2028,-0.1965,-0.1827,-0.1743,-0.1628,-0.1667,-0.1473,-0.1507,-0.1483,-0.1516,-0.1571,-0.1554,-0.1362,-0.1357,-0.1353,-0.135,0,-0.1791,-0.1809,-0.1823,-0.1835,-0.1843,-0.1857,-0.188,-0.1882,-0.1949,-0.194,-0.1915,-0.1864,-0.1742,-0.1576,-0.1433,-0.1374,-0.1426,-0.1385,-0.1383,-0.1284,-0.1312,-0.1282,-0.1499,-0.1315,-0.1318,-0.1321,-0.1323,-0.1324,-0.1709,-0.1697,-0.1715,-0.1712,-0.1726,-0.1719,-0.1682,-0.1719,-0.1703,-0.1664,-0.1712,-0.1588,-0.1463,-0.1243,-0.1176,-0.1026,-0.1141,-0.0997,-0.1048,-0.1105,-0.1059,-0.1182,-0.0965,-0.0966,-0.0968,-0.0969,-0.097,0,-0.1596,-0.1593,-0.1591,-0.158,-0.1543,-0.1595,-0.159,-0.1531,-0.1462,-0.1453,-0.1391,-0.1216,-0.1035,-0.0952,-0.0787,-0.0716,-0.0742,-0.0713,-0.0785,-0.0785,-0.0887,-0.0866,-0.0588,-0.0588,-0.0588,-0.0588,-0.0588,-0.0588,-0.1535,-0.1489,-0.1489,-0.1393,-0.1381,-0.1286,-0.1253,-0.1191,-0.1153,-0.1006,-0.0911,-0.084,-0.076,-0.0741,-0.062,-0.0578,-0.0609,-0.0564,-0.0632,-0.0732,-0.0765,-0.0796,-0.0782,-0.0492,-0.0492,-0.0485,-0.0485,-0.0485]},{"header":{"parameterUnit":"m.s-1","parameterCategory":2,"la1":30.2991,"la2":30.254,"lo1":-89.0895,"lo2":-89.0444,"dy":0.0017,"dx":0.0017,"nx":28,"ny":28,"refTime":"2025-03-09T21:00:00:Z","depth":"0","parameterNumber":3,"parameterNumberName":"V-component_of_CURRENTS"},"data":[0,0,0,0,0,0,0,0,0,0,0,0,0,0,0,0,0,0,0,0,0,0,0,0,0,0,0,0,0,0,0,0,0,0,0,0,0,0,0,0,0,0,0,0,0,0,0,0,0,0,0,0,0,0,0,0,0,0,-0.0463,-0.0462,0,-0.0424,-0.0423,-0.0423,-0.0377,-0.0376,-0.0376,-0.0375,-0.0166,-0.0162,-0.0157,0,0,0,0,0,0,0,0,0,0,0,0,0,-0.0484,-0.0483,-0.0463,-0.0462,-0.0462,-0.0424,-0.0423,-0.0423,-0.0377,-0.0376,-0.0376,-0.0375,-0.0168,-0.0162,-0.0156,0,0,0,0,0,0,0,0,0,0,0,0,0,-0.0463,-0.0483,-0.0463,-0.0434,-0.0431,-0.0424,-0.0423,-0.0422,-0.0377,-0.0376,-0.0375,-0.0374,-0.017,-0.0163,-0.0156,-0.0131,0,0,-0.0133,-0.013,0,0,0,0,0,0,0,0,-0.0464,-0.0462,-0.0439,-0.0436,-0.0433,-0.0404,-0.0354,-0.0317,-0.0378,-0.0398,-0.0375,-0.0374,-0.0231,-0.0218,-0.0216,-0.0122,-0.0113,-0.0132,-0.0128,-0.0125,-0.0123,0,0,0,0,0,0,0,-0.0465,-0.0463,-0.0447,-0.0439,-0.0435,-0.0419,-0.0415,-0.0347,-0.0318,-0.0396,-0.0393,-0.0389,-0.0228,-0.0224,-0.021,-0.0109,-0.0133,-0.0126,-0.0122,-0.0119,0.0,-0.0001,0,0,0,0,0,0,-0.0472,-0.0465,-0.0448,-0.0446,-0.0446,-0.0419,-0.0415,-0.0414,-0.0322,-0.0308,-0.039,-0.0387,-0.0237,-0.0219,-0.0202,-0.0179,-0.0125,-0.0118,-0.0114,0.0001,-0.0,-0.0002,0,0,0,0,0,0,-0.0473,-0.0471,-0.045,-0.0454,-0.045,-0.042,-0.042,-0.0414,-0.0406,-0.0319,-0.0302,-0.0387,-0.0235,-0.0213,-0.0162,-0.0169,-0.0115,-0.0108,0.0003,0.0001,-0.0001,-0.0123,0,0,0,0,0,0,-0.0474,-0.0472,-0.0475,-0.0455,-0.045,-0.0452,-0.0421,-0.0414,-0.0405,-0.0401,-0.031,-0.0291,-0.0232,-0.0174,-0.0155,-0.0158,-0.0102,0.0004,0.0002,-0.0,-0.0117,-0.0128,-0.0138,0,0,0,0,0,-0.0475,-0.0488,-0.0476,-0.0474,-0.0456,-0.0453,-0.045,-0.0424,-0.0406,-0.0411,-0.036,-0.0293,-0.0175,-0.0169,-0.0146,-0.0148,0.0006,0.0003,-0.0,-0.0112,-0.0126,-0.0138,0,0,0,0,0,0,-0.05,-0.0484,-0.047,-0.0478,-0.0467,-0.0445,-0.0447,-0.043,-0.0397,-0.0387,-0.0305,-0.0283,-0.0242,-0.0183,-0.0179,-0.0124,-0.0074,-0.0073,-0.0167,-0.018,-0.019,-0.019,-0.0096,0,0,0,0,0,-0.0508,-0.0512,-0.0494,-0.05,-0.0497,-0.0472,-0.0467,-0.0452,-0.0421,-0.0407,-0.0348,-0.0287,-0.0239,-0.0201,-0.0148,-0.011,-0.0048,-0.0099,-0.011,-0.0119,-0.0106,-0.0048,-0.0052,-0.0011,-0.0011,-0.0011,0,0,-0.0518,-0.051,-0.0512,-0.0505,-0.0493,-0.0503,-0.0467,-0.0466,-0.0469,-0.0385,-0.0367,-0.0317,-0.0239,-0.0211,-0.0186,-0.0157,-0.0102,-0.0122,-0.0131,-0.0112,-0.0051,-0.0055,-0.0058,-0.0013,-0.0012,-0.0012,0,0,-0.055,-0.0536,-0.0553,-0.055,-0.054,-0.0526,-0.0529,-0.051,-0.0495,-0.0475,-0.0424,-0.0386,-0.0304,-0.0263,-0.0228,-0.026,-0.0164,-0.0243,-0.0285,-0.0231,-0.0233,-0.0234,-0.0177,-0.0172,-0.0243,-0.0244,-0.0244,0,-0.0564,-0.0582,-0.0558,-0.0576,-0.0578,-0.0541,-0.0564,-0.0548,-0.0515,-0.05,-0.048,-0.0388,-0.033,-0.0289,-0.0311,-0.0281,-0.0232,-0.0245,-0.0244,-0.0244,-0.0243,-0.0183,-0.0176,-0.025,-0.0249,-0.0249,-0.0248,0,-0.061,-0.0623,-0.0634,-0.0642,-0.0643,-0.0655,-0.0633,-0.0625,-0.0599,-0.0574,-0.0532,-0.047,-0.0409,-0.0398,-0.0361,-0.0333,-0.0296,-0.027,-0.0212,-0.0254,-0.0189,-0.0179,-0.0259,-0.0257,-0.0255,-0.0253,0,0,-0.0642,-0.0664,-0.0667,-0.0683,-0.0679,-0.0685,-0.0688,-0.0676,-0.0663,-0.0628,-0.0605,-0.0552,-0.0509,-0.0468,-0.0419,-0.0377,-0.0347,-0.0329,-0.0323,-0.0273,-0.0221,-0.0177,-0.0161,-0.0322,-0.032,-0.0319,-0.0183,0,-0.0684,-0.0736,-0.0731,-0.0772,-0.0796,-0.0766,-0.0769,-0.0748,-0.0711,-0.0677,-0.0611,-0.0568,-0.0537,-0.051,-0.0468,-0.0368,-0.0325,-0.0385,-0.0185,-0.0178,-0.0135,-0.015,-0.0118,0.0008,-0.0173,-0.0171,-0.017,0,-0.0732,-0.076,-0.0814,-0.0834,-0.084,-0.0854,-0.0839,-0.0835,-0.0775,-0.0741,-0.0687,-0.0625,-0.0559,-0.0528,-0.0382,-0.0421,-0.0332,-0.0259,-0.0251,-0.0154,-0.0116,0.0025,0.0034,0.0126,-0.0154,-0.0155,-0.0157,0,-0.0772,-0.0815,-0.086,-0.087,-0.0886,-0.0896,-0.0894,-0.0854,-0.0838,-0.0775,-0.0741,-0.0655,-0.0591,-0.0486,-0.0342,-0.0358,-0.0165,-0.0165,-0.004,-0.0035,0.0064,0.0075,0.019,-0.0059,-0.006,-0.006,-0.0061,0,-0.0822,-0.0856,-0.0882,-0.0908,-0.0945,-0.0937,-0.0947,-0.0927,-0.0879,-0.0847,-0.0774,-0.0714,-0.0575,-0.045,-0.0338,-0.015,-0.0158,-0.0035,0.0006,0.0019,0.0024,0.0169,0.0195,-0.0055,-0.0056,-0.0057,-0.0058,0,-0.0862,-0.0882,-0.0933,-0.0961,-0.0969,-0.0993,-0.0992,-0.0987,-0.0936,-0.0887,-0.0868,-0.074,-0.0572,-0.0421,-0.0221,-0.0127,0.0107,0.0101,0.0108,0.0147,0.0326,0.0343,0.0522,0.0596,0.0254,0.0256,0.0257,0,-0.0888,-0.0921,-0.0972,-0.0999,-0.1015,-0.1041,-0.1051,-0.1022,-0.1005,-0.0892,-0.0864,-0.0698,-0.0558,-0.0253,-0.0061,0.0156,0.0219,0.0305,0.0273,0.0353,0.0404,0.0404,0.0452,0.0355,0.0357,0.0359,0.0361,0,-0.093,-0.0947,-0.0987,-0.1046,-0.1075,-0.1101,-0.1107,-0.1099,-0.1038,-0.0967,-0.0832,-0.0709,-0.0412,-0.0145,0.0126,0.0251,0.0373,0.035,0.0441,0.0503,0.0507,0.0592,0.0245,0.0377,0.0376,0.0375,0.0374,0.0373,-0.0948,-0.0987,-0.1036,-0.1087,-0.1123,-0.1142,-0.1141,-0.1111,-0.1056,-0.0912,-0.0801,-0.0544,-0.0216,0.0177,0.0305,0.0576,0.0534,0.065,0.0669,0.0666,0.0722,0.0409,0.0576,0.0576,0.0575,0.0575,0.0574,0,-0.0965,-0.1011,-0.1069,-0.1126,-0.1158,-0.1168,-0.1159,-0.1112,-0.1019,-0.0846,-0.0675,-0.0206,0.0112,0.0403,0.0751,0.0885,0.0901,0.0946,0.0954,0.0994,0.0738,0.0726,0.0923,0.0923,0.0923,0.0923,0.0923,0.0923,-0.0976,-0.1037,-0.1072,-0.1134,-0.1166,-0.1171,-0.1152,-0.1052,-0.091,-0.0583,-0.0268,-0.0016,0.0416,0.0825,0.112,0.1147,0.1252,0.1235,0.1298,0.1107,0.108,0.1054,0.105,0.1313,0.1313,0.1552,0.1554,0.1556]}],[{"header":{"parameterUnit":"m.s-1","parameterCategory":2,"la1":30.2991,"la2":30.254,"lo1":-89.0895,"lo2":-89.0444,"dy":0.0017,"dx":0.0017,"nx":28,"ny":28,"refTime":"2025-03-09T21:00:00:Z","depth":"2","parameterNumber":2,"parameterNumberName":"U-component_of_CURRENTS"},"data":[0,0,0,0,0,0,0,0,0,0,0,0,0,0,0,0,0,0,0,0,0,0,0,0,0,0,0,0,0,0,0,0,0,0,0,0,0,0,0,0,0,0,0,0,0,0,0,0,0,0,0,0,0,0,0,0,0,0,-0.2108,-0.2109,0,-0.2157,-0.2158,-0.2158,-0.2146,-0.2146,-0.2145,-0.2144,-0.214,-0.2141,-0.2141,0,0,0,0,0,0,0,0,0,0,0,0,0,-0.203,-0.2032,-0.2108,-0.2109,-0.211,-0.2157,-0.2158,-0.2158,-0.2147,-0.2146,-0.2145,-0.2144,-0.214,-0.2141,-0.2141,0,0,0,0,0,0,0,0,0,0,0,0,0,-0.2068,-0.2032,-0.2108,-0.2111,-0.2112,-0.2157,-0.2158,-0.2158,-0.2147,-0.2146,-0.2144,-0.2143,-0.214,-0.2141,-0.2141,-0.217,0,0,-0.2144,-0.2145,0,0,0,0,0,0,0,0,-0.2066,-0.2071,-0.211,-0.2111,-0.2112,-0.2146,-0.2129,-0.216,-0.2147,-0.2131,-0.2144,-0.2143,-0.214,-0.214,-0.215,-0.217,-0.2169,-0.2144,-0.2145,-0.2145,-0.2145,0,0,0,0,0,0,0,-0.2063,-0.2069,-0.2125,-0.2111,-0.2112,-0.2119,-0.2123,-0.2135,-0.2139,-0.2133,-0.2132,-0.2142,-0.2139,-0.2149,-0.215,-0.2169,-0.2144,-0.2145,-0.2146,-0.2146,-0.2176,-0.2177,0,0,0,0,0,0,-0.2062,-0.2066,-0.2124,-0.2127,-0.2088,-0.2122,-0.2126,-0.2135,-0.214,-0.214,-0.2143,-0.2141,-0.2148,-0.2149,-0.2149,-0.2159,-0.2145,-0.2146,-0.2147,-0.2176,-0.2177,-0.2177,0,0,0,0,0,0,-0.206,-0.2067,-0.2122,-0.2099,-0.2107,-0.2124,-0.2135,-0.2137,-0.2146,-0.2148,-0.2147,-0.215,-0.2147,-0.2148,-0.2155,-0.2159,-0.2146,-0.2147,-0.2176,-0.2176,-0.2177,-0.2193,0,0,0,0,0,0,-0.2058,-0.2066,-0.207,-0.2099,-0.2109,-0.2144,-0.2136,-0.2138,-0.2154,-0.2153,-0.2154,-0.2153,-0.2146,-0.2154,-0.2156,-0.216,-0.2148,-0.2176,-0.2176,-0.2177,-0.2192,-0.2194,-0.2195,0,0,0,0,0,-0.2055,-0.2066,-0.207,-0.2077,-0.2115,-0.2145,-0.215,-0.2157,-0.2156,-0.216,-0.216,-0.2153,-0.2158,-0.2155,-0.2158,-0.2162,-0.2175,-0.2176,-0.2177,-0.2191,-0.2193,-0.2195,0,0,0,0,0,0,-0.2033,-0.2067,-0.2072,-0.2092,-0.2114,-0.2143,-0.2152,-0.2162,-0.2169,-0.2166,-0.2163,-0.2162,-0.2168,-0.2166,-0.2163,-0.2171,-0.2163,-0.2165,-0.2174,-0.2176,-0.2178,-0.2169,-0.2149,0,0,0,0,0,-0.2033,-0.2048,-0.2081,-0.2095,-0.2108,-0.2132,-0.2146,-0.2154,-0.2168,-0.217,-0.2173,-0.2173,-0.2175,-0.2175,-0.2178,-0.219,-0.2169,-0.2192,-0.2193,-0.2195,-0.2189,-0.2171,-0.217,-0.2179,-0.2179,-0.2179,0,0,-0.2029,-0.2049,-0.2057,-0.2091,-0.2109,-0.2131,-0.2137,-0.216,-0.2173,-0.217,-0.2182,-0.2183,-0.218,-0.2187,-0.2189,-0.2184,-0.218,-0.2196,-0.2197,-0.219,-0.2171,-0.217,-0.2169,-0.2179,-0.2179,-0.2179,0,0,-0.203,-0.2047,-0.206,-0.2082,-0.2114,-0.2131,-0.214,-0.2172,-0.2177,-0.2198,-0.2192,-0.2192,-0.2207,-0.2198,-0.2197,-0.2211,-0.2191,-0.2216,-0.2217,-0.22,-0.2198,-0.2197,-0.216,-0.2156,-0.2215,-0.2215,-0.2215,0,-0.2023,-0.2043,-0.2068,-0.2089,-0.2105,-0.2132,-0.215,-0.2167,-0.2195,-0.2199,-0.2199,-0.2211,-0.2208,-0.2208,-0.2209,-0.2214,-0.2196,-0.2211,-0.2201,-0.2199,-0.2198,-0.216,-0.2155,-0.2216,-0.2216,-0.2216,-0.2216,0,-0.2033,-0.2052,-0.2063,-0.2094,-0.2116,-0.2137,-0.2167,-0.2184,-0.2197,-0.221,-0.2218,-0.2218,-0.2219,-0.2222,-0.2221,-0.2213,-0.22,-0.2207,-0.2195,-0.2198,-0.2158,-0.2152,-0.2217,-0.2217,-0.2217,-0.2216,0,0,-0.2006,-0.206,-0.2061,-0.2074,-0.212,-0.2137,-0.2163,-0.2189,-0.2197,-0.2218,-0.2221,-0.2228,-0.2228,-0.2225,-0.2224,-0.2211,-0.2182,-0.2206,-0.2204,-0.2166,-0.2129,-0.2041,-0.2026,-0.2191,-0.219,-0.2189,-0.2102,0,-0.2002,-0.2032,-0.2064,-0.2089,-0.2107,-0.2143,-0.2162,-0.2188,-0.2206,-0.2216,-0.2219,-0.2222,-0.223,-0.2227,-0.2217,-0.2195,-0.2169,-0.2204,-0.2134,-0.2131,-0.205,-0.2017,-0.1877,-0.178,-0.2096,-0.2095,-0.2094,0,-0.1993,-0.2016,-0.204,-0.2082,-0.2093,-0.2111,-0.214,-0.2164,-0.2189,-0.2202,-0.2212,-0.2217,-0.2206,-0.221,-0.2167,-0.2192,-0.2157,-0.2136,-0.2132,-0.2039,-0.2032,-0.183,-0.1758,-0.2084,-0.2085,-0.2085,-0.2086,0,-0.1944,-0.1993,-0.2007,-0.2023,-0.2078,-0.209,-0.2116,-0.2151,-0.2164,-0.2187,-0.2191,-0.2194,-0.2181,-0.2158,-0.2122,-0.2144,-0.2061,-0.2084,-0.1967,-0.196,-0.1819,-0.18,-0.2036,-0.2036,-0.2036,-0.2036,-0.2037,0,-0.1918,-0.1926,-0.1984,-0.199,-0.2002,-0.2055,-0.2066,-0.2097,-0.213,-0.2132,-0.2173,-0.2163,-0.2168,-0.2132,-0.2106,-0.2004,-0.2043,-0.1946,-0.1926,-0.1819,-0.1802,-0.2056,-0.206,-0.2033,-0.2034,-0.2035,-0.2035,0,-0.1854,-0.1895,-0.1911,-0.1964,-0.1978,-0.1984,-0.2033,-0.2037,-0.2085,-0.2087,-0.2092,-0.2123,-0.2071,-0.2053,-0.1997,-0.1957,-0.1888,-0.1841,-0.1704,-0.1669,-0.1804,-0.181,-0.1698,-0.1694,-0.1691,-0.1688,-0.1686,0,-0.1821,-0.1823,-0.1873,-0.1877,-0.1898,-0.192,-0.1929,-0.1996,-0.2006,-0.205,-0.2038,-0.2013,-0.1958,-0.1847,-0.177,-0.1672,-0.177,-0.1501,-0.1515,-0.1774,-0.1767,-0.1778,-0.1788,-0.1332,-0.1327,-0.1322,-0.1319,0,-0.1749,-0.1768,-0.178,-0.1792,-0.1803,-0.1818,-0.1843,-0.1846,-0.1912,-0.1912,-0.1894,-0.1854,-0.1755,-0.1585,-0.1473,-0.1416,-0.151,-0.1412,-0.1701,-0.1445,-0.1423,-0.1418,-0.1441,-0.1282,-0.1286,-0.1289,-0.1291,-0.1292,-0.1682,-0.1672,-0.1687,-0.1685,-0.1701,-0.1694,-0.1659,-0.1692,-0.1679,-0.1644,-0.1697,-0.1575,-0.1541,-0.1276,-0.1185,-0.1117,-0.1235,-0.1191,-0.1206,-0.1225,-0.1205,-0.1178,-0.0987,-0.0989,-0.099,-0.0992,-0.0993,0,-0.1585,-0.158,-0.1577,-0.1566,-0.1533,-0.1583,-0.1576,-0.1515,-0.1447,-0.1431,-0.1376,-0.1186,-0.104,-0.1012,-0.0833,-0.0794,-0.0815,-0.0771,-0.0806,-0.0842,-0.0874,-0.0839,-0.0522,-0.0521,-0.052,-0.0519,0,0,-0.1532,-0.1489,-0.1484,-0.1393,-0.1383,-0.1292,-0.1259,-0.1193,-0.1147,-0.1035,-0.0956,-0.0983,-0.0973,-0.0755,-0.0697,-0.0577,-0.071,-0.0542,-0.0918,-0.0996,-0.1027,-0.1109,-0.1093,0,0,0,0,0]},{"header":{"parameterUnit":"m.s-1","parameterCategory":2,"la1":30.2991,"la2":30.254,"lo1":-89.0895,"lo2":-89.0444,"dy":0.0017,"dx":0.0017,"nx":28,"ny":28,"refTime":"2025-03-09T21:00:00:Z","depth":"2","parameterNumber":3,"parameterNumberName":"V-component_of_CURRENTS"},"data":[0,0,0,0,0,0,0,0,0,0,0,0,0,0,0,0,0,0,0,0,0,0,0,0,0,0,0,0,0,0,0,0,0,0,0,0,0,0,0,0,0,0,0,0,0,0,0,0,0,0,0,0,0,0,0,0,0,0,-0.0344,-0.0344,0,-0.0316,-0.0316,-0.0315,-0.0282,-0.0281,-0.0281,-0.028,-0.0181,-0.0178,-0.0176,0,0,0,0,0,0,0,0,0,0,0,0,0,-0.0352,-0.0353,-0.0344,-0.0344,-0.0344,-0.0316,-0.0316,-0.0315,-0.0282,-0.0281,-0.0281,-0.028,-0.0181,-0.0179,-0.0176,0,0,0,0,0,0,0,0,0,0,0,0,0,-0.0339,-0.0353,-0.0344,-0.0324,-0.0322,-0.0316,-0.0316,-0.0315,-0.0282,-0.0281,-0.028,-0.028,-0.0182,-0.0179,-0.0176,-0.0171,0,0,-0.0166,-0.0164,0,0,0,0,0,0,0,0,-0.034,-0.0339,-0.0327,-0.0325,-0.0323,-0.0302,-0.0282,-0.0263,-0.0282,-0.0297,-0.028,-0.0279,-0.0215,-0.0209,-0.0206,-0.0166,-0.0162,-0.0165,-0.0164,-0.0162,-0.0161,0,0,0,0,0,0,0,-0.0341,-0.034,-0.0333,-0.0327,-0.0324,-0.031,-0.0307,-0.0278,-0.0259,-0.0296,-0.0293,-0.029,-0.0213,-0.021,-0.0204,-0.0161,-0.0166,-0.0163,-0.0161,-0.0159,-0.0088,-0.0088,0,0,0,0,0,0,-0.0346,-0.0341,-0.0334,-0.0332,-0.033,-0.031,-0.0307,-0.0309,-0.0261,-0.0254,-0.0291,-0.0289,-0.0216,-0.0207,-0.02,-0.0177,-0.0162,-0.0159,-0.0157,-0.0088,-0.0088,-0.0088,0,0,0,0,0,0,-0.0347,-0.0346,-0.0335,-0.0335,-0.0333,-0.0311,-0.0313,-0.0309,-0.0304,-0.0258,-0.0249,-0.029,-0.0215,-0.0204,-0.0175,-0.0173,-0.0158,-0.0155,-0.0088,-0.0088,-0.0088,-0.014,0,0,0,0,0,0,-0.0347,-0.0347,-0.0351,-0.0336,-0.0333,-0.0338,-0.0314,-0.0309,-0.0303,-0.03,-0.0254,-0.0245,-0.0213,-0.018,-0.0172,-0.0168,-0.0152,-0.0088,-0.0088,-0.0088,-0.0138,-0.0142,-0.0145,0,0,0,0,0,-0.0348,-0.0361,-0.0351,-0.035,-0.034,-0.0338,-0.0336,-0.0317,-0.0304,-0.0308,-0.0274,-0.0246,-0.0174,-0.0178,-0.0168,-0.0163,-0.0088,-0.0088,-0.0088,-0.0137,-0.0141,-0.0145,0,0,0,0,0,0,-0.0369,-0.0358,-0.0348,-0.0357,-0.0349,-0.0333,-0.0335,-0.0322,-0.0301,-0.0294,-0.0249,-0.0237,-0.0211,-0.0181,-0.0186,-0.0143,-0.0126,-0.0124,-0.0166,-0.017,-0.0173,-0.0179,-0.0149,0,0,0,0,0,-0.0375,-0.0381,-0.0367,-0.0375,-0.0373,-0.0354,-0.0351,-0.034,-0.0319,-0.0309,-0.0277,-0.0239,-0.0205,-0.0184,-0.0154,-0.0131,-0.0095,-0.0121,-0.0125,-0.0128,-0.0126,-0.0074,-0.0072,-0.0089,-0.0089,-0.0089,0,0,-0.0385,-0.038,-0.0383,-0.0379,-0.0371,-0.0376,-0.0351,-0.0352,-0.035,-0.0301,-0.0287,-0.0252,-0.0203,-0.0179,-0.0163,-0.0152,-0.0104,-0.0128,-0.0131,-0.0127,-0.0074,-0.0072,-0.0071,-0.0089,-0.0089,-0.0089,0,0,-0.0413,-0.0404,-0.0419,-0.0416,-0.0409,-0.0396,-0.0398,-0.0384,-0.037,-0.0356,-0.0316,-0.028,-0.0238,-0.0198,-0.0172,-0.0175,-0.0128,-0.0166,-0.0183,-0.0133,-0.0131,-0.0129,-0.0085,-0.0079,-0.0164,-0.0164,-0.0164,0,-0.0425,-0.044,-0.0423,-0.0437,-0.0436,-0.0408,-0.0423,-0.0407,-0.0384,-0.0367,-0.0358,-0.0284,-0.0245,-0.0197,-0.0199,-0.0181,-0.0149,-0.0173,-0.0137,-0.0135,-0.0131,-0.0087,-0.0079,-0.0167,-0.0166,-0.0166,-0.0166,0,-0.0464,-0.0474,-0.0483,-0.0487,-0.0485,-0.0494,-0.047,-0.0461,-0.0439,-0.0415,-0.0373,-0.0321,-0.0274,-0.0255,-0.0227,-0.0184,-0.0167,-0.0152,-0.0129,-0.0133,-0.0086,-0.0077,-0.017,-0.0169,-0.0168,-0.0168,0,0,-0.0494,-0.0508,-0.0511,-0.0521,-0.0512,-0.0516,-0.0507,-0.0487,-0.0474,-0.044,-0.0414,-0.0353,-0.032,-0.0288,-0.0244,-0.0197,-0.015,-0.017,-0.0167,-0.0131,-0.0042,-0.0023,-0.0011,-0.013,-0.0128,-0.0127,-0.002,0,-0.0529,-0.0569,-0.0559,-0.0587,-0.0604,-0.0572,-0.0566,-0.054,-0.0506,-0.0474,-0.0405,-0.0368,-0.0333,-0.0311,-0.0259,-0.0177,-0.0128,-0.018,-0.004,-0.0036,-0.0021,0.0,-0.0018,0.0077,-0.0011,-0.0009,-0.0008,0,-0.0568,-0.0589,-0.0628,-0.0636,-0.0638,-0.0646,-0.0623,-0.0613,-0.0552,-0.0523,-0.0468,-0.0415,-0.0339,-0.0315,-0.0175,-0.0211,-0.0133,-0.0069,-0.0063,-0.0019,0.0001,0.0068,0.0097,0.0008,0.0006,0.0005,0.0004,0,-0.0604,-0.0633,-0.0666,-0.0672,-0.0676,-0.0679,-0.0674,-0.0629,-0.0614,-0.0552,-0.0529,-0.0436,-0.0385,-0.028,-0.0152,-0.0162,0.0005,0.001,0.0104,0.0106,0.0133,0.0135,0.0111,0.0111,0.0111,0.0111,0.011,0,-0.0646,-0.0671,-0.0689,-0.0709,-0.0738,-0.0721,-0.0729,-0.0705,-0.0662,-0.0637,-0.056,-0.0511,-0.0373,-0.0264,-0.0154,0.0006,0.0006,0.0111,0.0141,0.0113,0.0112,0.0085,0.008,0.0115,0.0114,0.0113,0.0112,0,-0.0683,-0.0696,-0.0736,-0.0754,-0.0761,-0.0781,-0.0779,-0.0777,-0.073,-0.0694,-0.0677,-0.0557,-0.041,-0.0266,-0.0082,0.0007,0.0152,0.0209,0.0164,0.0186,0.022,0.0211,0.0324,0.0325,0.0327,0.0328,0.0329,0,-0.0706,-0.0733,-0.0775,-0.0801,-0.0814,-0.0837,-0.0849,-0.0819,-0.0807,-0.0713,-0.0694,-0.0551,-0.043,-0.0159,0.0017,0.0215,0.0211,0.0306,0.0287,0.0227,0.0244,0.0233,0.0223,0.0302,0.0303,0.0304,0.0304,0,-0.0745,-0.0761,-0.0794,-0.0852,-0.0881,-0.0907,-0.0917,-0.0917,-0.0863,-0.0805,-0.0694,-0.0587,-0.0334,-0.0112,0.0128,0.0238,0.0268,0.0324,0.0295,0.0243,0.0213,0.0228,0.0218,0.0309,0.0309,0.0308,0.0308,0.0308,-0.0766,-0.0802,-0.0846,-0.0896,-0.0934,-0.0961,-0.0964,-0.0943,-0.0901,-0.0782,-0.069,-0.0479,-0.0307,0.0066,0.0209,0.0347,0.0345,0.0383,0.0379,0.0375,0.0344,0.0318,0.0429,0.0429,0.0429,0.0429,0.0429,0,-0.0788,-0.083,-0.0885,-0.094,-0.0978,-0.0988,-0.0992,-0.0953,-0.0879,-0.0741,-0.0598,-0.0341,-0.0106,0.0082,0.0305,0.0419,0.0398,0.0435,0.0382,0.0376,0.0372,0.0338,0.0423,0.0423,0.0423,0.0424,0,0,-0.0801,-0.0858,-0.089,-0.0957,-0.0992,-0.1008,-0.0998,-0.0912,-0.0797,-0.0623,-0.045,-0.0269,-0.0054,0.01,0.0227,0.0339,0.0327,0.0347,0.0341,0.0257,0.0251,0.0334,0.0276,0,0,0,0,0]}],[{"header":{"parameterUnit":"m.s-1","parameterCategory":2,"la1":30.2991,"la2":30.254,"lo1":-89.0895,"lo2":-89.0444,"dy":0.0017,"dx":0.0017,"nx":28,"ny":28,"refTime":"2025-03-09T21:00:00:Z","depth":"4","parameterNumber":2,"parameterNumberName":"U-component_of_CURRENTS"},"data":[0,0,0,0,0,0,0,0,0,0,0,0,0,0,0,0,0,0,0,0,0,0,0,0,0,0,0,0,0,0,0,0,0,0,0,0,0,0,0,0,0,0,0,0,0,0,0,0,0,0,0,0,0,0,0,0,0,0,-0.1467,-0.1468,0,-0.1525,-0.1525,-0.1526,-0.156,-0.156,-0.156,-0.156,-0.159,-0.1591,-0.1591,0,0,0,0,0,0,0,0,0,0,0,0,0,-0.1391,-0.1392,-0.1467,-0.1468,-0.1469,-0.1525,-0.1525,-0.1526,-0.156,-0.156,-0.156,-0.1561,-0.159,-0.159,-0.1591,0,0,0,0,0,0,0,0,0,0,0,0,0,-0.1432,-0.1392,-0.1467,-0.1493,-0.1496,-0.1525,-0.1525,-0.1526,-0.1559,-0.156,-0.156,-0.1561,-0.159,-0.159,-0.1591,-0.1587,0,0,-0.1594,-0.1594,0,0,0,0,0,0,0,0,-0.143,-0.1434,-0.1488,-0.1491,-0.1495,-0.1537,-0.151,-0.1546,-0.1559,-0.1534,-0.156,-0.1561,-0.157,-0.1573,-0.1581,-0.1589,-0.159,-0.1594,-0.1594,-0.1594,-0.1595,0,0,0,0,0,0,0,-0.1427,-0.1432,-0.1488,-0.1489,-0.1493,-0.1505,-0.1511,-0.1517,-0.1547,-0.1536,-0.1539,-0.1548,-0.1572,-0.158,-0.1582,-0.159,-0.1594,-0.1594,-0.1595,-0.1595,-0.1648,-0.1649,0,0,0,0,0,0,-0.1422,-0.143,-0.1486,-0.149,-0.1465,-0.1506,-0.1512,-0.1522,-0.1548,-0.1553,-0.1548,-0.1549,-0.1578,-0.1581,-0.1583,-0.1628,-0.1594,-0.1595,-0.1596,-0.1647,-0.1649,-0.165,0,0,0,0,0,0,-0.142,-0.1427,-0.1484,-0.1462,-0.1471,-0.1507,-0.1517,-0.1523,-0.1556,-0.1557,-0.1562,-0.1578,-0.1579,-0.1582,-0.1608,-0.1627,-0.1595,-0.1596,-0.1646,-0.1648,-0.1649,-0.1687,0,0,0,0,0,0,-0.1418,-0.1426,-0.1442,-0.1462,-0.1472,-0.1512,-0.1517,-0.1523,-0.156,-0.1564,-0.1584,-0.1586,-0.1579,-0.1607,-0.1609,-0.1628,-0.1597,-0.1645,-0.1647,-0.1649,-0.1685,-0.169,-0.1694,0,0,0,0,0,-0.1415,-0.1431,-0.1443,-0.145,-0.149,-0.1513,-0.1519,-0.1544,-0.1562,-0.1577,-0.1594,-0.1587,-0.1619,-0.1608,-0.161,-0.163,-0.1644,-0.1646,-0.1649,-0.1683,-0.1689,-0.1694,0,0,0,0,0,0,-0.1408,-0.1437,-0.145,-0.1475,-0.1499,-0.152,-0.1542,-0.156,-0.1587,-0.1599,-0.1599,-0.1602,-0.1631,-0.1627,-0.1615,-0.1651,-0.1631,-0.1633,-0.1656,-0.1662,-0.1666,-0.1656,-0.1597,0,0,0,0,0,-0.1413,-0.1434,-0.146,-0.1483,-0.1497,-0.1526,-0.1545,-0.1563,-0.1585,-0.1599,-0.1615,-0.1629,-0.1637,-0.1648,-0.1654,-0.1676,-0.1655,-0.169,-0.1695,-0.1699,-0.1692,-0.1683,-0.1686,-0.1657,-0.1657,-0.1657,0,0,-0.1419,-0.1437,-0.1452,-0.1483,-0.1506,-0.1528,-0.1539,-0.1574,-0.1596,-0.1596,-0.1639,-0.1648,-0.1647,-0.167,-0.1682,-0.1672,-0.1697,-0.1702,-0.1705,-0.1696,-0.1686,-0.1688,-0.1691,-0.1658,-0.1658,-0.1658,0,0,-0.1429,-0.1457,-0.1475,-0.1496,-0.1534,-0.1549,-0.1565,-0.1602,-0.1625,-0.1661,-0.1665,-0.1685,-0.171,-0.1707,-0.1708,-0.1743,-0.1721,-0.1755,-0.1771,-0.1763,-0.1765,-0.1767,-0.1741,-0.1739,-0.1758,-0.1758,-0.1758,0,-0.1438,-0.146,-0.1485,-0.1506,-0.1527,-0.1561,-0.1584,-0.1609,-0.1652,-0.1668,-0.168,-0.1718,-0.1722,-0.1735,-0.1748,-0.1752,-0.174,-0.175,-0.1768,-0.1769,-0.177,-0.1743,-0.1741,-0.176,-0.176,-0.1759,-0.1759,0,-0.145,-0.148,-0.1495,-0.153,-0.1555,-0.1583,-0.1616,-0.165,-0.1685,-0.1705,-0.1743,-0.1752,-0.1769,-0.178,-0.1775,-0.1788,-0.1775,-0.1774,-0.1751,-0.1775,-0.1745,-0.1743,-0.1763,-0.1762,-0.1762,-0.1761,0,0,-0.1434,-0.1493,-0.15,-0.1522,-0.1572,-0.1591,-0.1633,-0.1669,-0.1696,-0.174,-0.1767,-0.1791,-0.1803,-0.1804,-0.1808,-0.1805,-0.1802,-0.1798,-0.1796,-0.1766,-0.1774,-0.1653,-0.1638,-0.181,-0.1809,-0.1809,-0.175,0,-0.1438,-0.1477,-0.1508,-0.155,-0.1572,-0.1616,-0.1648,-0.1688,-0.1724,-0.1758,-0.1778,-0.1804,-0.1811,-0.1825,-0.1825,-0.181,-0.1798,-0.1817,-0.176,-0.1758,-0.1642,-0.1632,-0.1809,-0.1748,-0.1747,-0.1747,-0.1746,0,-0.1432,-0.146,-0.1501,-0.1558,-0.1573,-0.1606,-0.166,-0.1694,-0.1743,-0.1771,-0.1804,-0.1821,-0.1832,-0.1834,-0.1813,-0.1829,-0.1802,-0.1785,-0.1783,-0.165,-0.163,-0.172,-0.1741,-0.1741,-0.1742,-0.1742,-0.1742,0,-0.1389,-0.1452,-0.1486,-0.1506,-0.1574,-0.1606,-0.1646,-0.17,-0.1727,-0.178,-0.18,-0.1824,-0.1833,-0.1819,-0.1791,-0.1807,-0.175,-0.1765,-0.1626,-0.1617,-0.173,-0.1729,-0.1735,-0.1735,-0.1736,-0.1736,-0.1736,0,-0.1361,-0.1391,-0.1474,-0.149,-0.1531,-0.159,-0.1633,-0.1677,-0.173,-0.1745,-0.1804,-0.1804,-0.1831,-0.1808,-0.1785,-0.1681,-0.1742,-0.161,-0.1588,-0.1747,-0.1749,-0.1727,-0.1727,-0.1734,-0.1734,-0.1734,-0.1735,0,-0.1301,-0.1359,-0.1401,-0.1484,-0.1512,-0.1542,-0.1622,-0.164,-0.1708,-0.1727,-0.1744,-0.1785,-0.1747,-0.1745,-0.1705,-0.1648,-0.158,-0.1529,-0.1681,-0.1672,-0.1456,-0.1459,-0.1365,-0.136,-0.1356,-0.1352,-0.1349,0,-0.1268,-0.1286,-0.1383,-0.1407,-0.1449,-0.1505,-0.1533,-0.1616,-0.163,-0.1692,-0.168,-0.1682,-0.1688,-0.1523,-0.1548,-0.147,-0.1456,-0.1413,-0.1447,-0.1427,-0.1416,-0.1425,-0.1434,-0.1342,-0.1341,-0.134,-0.1339,0,-0.1201,-0.1251,-0.1284,-0.1335,-0.1377,-0.1412,-0.1461,-0.1458,-0.1533,-0.1614,-0.1558,-0.1522,-0.1468,-0.1427,-0.1367,-0.1325,-0.144,-0.1369,-0.1379,-0.141,-0.1399,-0.1394,-0.1407,-0.1325,-0.1327,-0.1328,-0.1329,0,-0.115,-0.1158,-0.121,-0.1238,-0.1291,-0.129,-0.1333,-0.1333,-0.1356,-0.1429,-0.1403,-0.1405,-0.1445,-0.1349,-0.13,-0.1238,-0.1225,-0.119,-0.1208,-0.1225,-0.1206,-0.1174,-0.099,0,0,0,0,0,-0.1088,-0.108,-0.1103,-0.1125,-0.1172,-0.1198,-0.1266,-0.1308,-0.1384,-0.13,-0.1346,-0.1289,-0.1212,-0.1221,-0.1122,-0.1239,-0.1235,-0.1121,-0.1206,-0.1245,-0.1261,-0.1252,0,0,0,0,0,0,-0.1046,-0.1064,-0.1064,-0.102,-0.1011,-0.1043,-0.108,-0.1134,-0.1097,-0.1179,-0.1139,-0.1203,-0.1144,-0.1233,-0.1091,-0.1091,-0.1115,-0.1134,-0.113,-0.1235,-0.125,-0.1264,-0.126,0,0,0,0,0]},{"header":{"parameterUnit":"m.s-1","parameterCategory":2,"la1":30.2991,"la2":30.254,"lo1":-89.0895,"lo2":-89.0444,"dy":0.0017,"dx":0.0017,"nx":28,"ny":28,"refTime":"2025-03-09T21:00:00:Z","depth":"4","parameterNumber":3,"parameterNumberName":"V-component_of_CURRENTS"},"data":[0,0,0,0,0,0,0,0,0,0,0,0,0,0,0,0,0,0,0,0,0,0,0,0,0,0,0,0,0,0,0,0,0,0,0,0,0,0,0,0,0,0,0,0,0,0,0,0,0,0,0,0,0,0,0,0,0,0,-0.0238,-0.0238,0,-0.0229,-0.0229,-0.0229,-0.0216,-0.0215,-0.0215,-0.0215,-0.0166,-0.0165,-0.0164,0,0,0,0,0,0,0,0,0,0,0,0,0,-0.023,-0.023,-0.0238,-0.0238,-0.0238,-0.0229,-0.0229,-0.0229,-0.0216,-0.0215,-0.0215,-0.0215,-0.0167,-0.0165,-0.0164,0,0,0,0,0,0,0,0,0,0,0,0,0,-0.0228,-0.023,-0.0238,-0.023,-0.0229,-0.0229,-0.0229,-0.0229,-0.0216,-0.0215,-0.0215,-0.0215,-0.0167,-0.0165,-0.0164,-0.0161,0,0,-0.0159,-0.0158,0,0,0,0,0,0,0,0,-0.0228,-0.0229,-0.0231,-0.0231,-0.023,-0.0223,-0.0208,-0.0204,-0.0216,-0.0221,-0.0215,-0.0215,-0.0182,-0.0179,-0.0179,-0.0158,-0.0156,-0.0159,-0.0158,-0.0157,-0.0157,0,0,0,0,0,0,0,-0.0228,-0.0229,-0.0234,-0.0231,-0.023,-0.0222,-0.0222,-0.0207,-0.0203,-0.022,-0.022,-0.0219,-0.0181,-0.018,-0.0177,-0.0156,-0.0159,-0.0157,-0.0156,-0.0156,-0.0115,-0.0115,0,0,0,0,0,0,-0.0231,-0.0229,-0.0235,-0.0234,-0.0228,-0.0223,-0.0222,-0.0226,-0.0204,-0.02,-0.0219,-0.0218,-0.0183,-0.0179,-0.0175,-0.0161,-0.0157,-0.0156,-0.0155,-0.0115,-0.0115,-0.0115,0,0,0,0,0,0,-0.0231,-0.0232,-0.0235,-0.0231,-0.0231,-0.0223,-0.0227,-0.0226,-0.0227,-0.0203,-0.0199,-0.0222,-0.0183,-0.0178,-0.0165,-0.016,-0.0155,-0.0153,-0.0115,-0.0115,-0.0115,-0.0139,0,0,0,0,0,0,-0.0231,-0.0232,-0.0238,-0.0231,-0.0231,-0.024,-0.0227,-0.0226,-0.0227,-0.0226,-0.0204,-0.0199,-0.0182,-0.0168,-0.0163,-0.0157,-0.0152,-0.0115,-0.0115,-0.0115,-0.0138,-0.014,-0.0141,0,0,0,0,0,-0.023,-0.0242,-0.0238,-0.0239,-0.0239,-0.0241,-0.024,-0.0233,-0.0227,-0.0233,-0.0215,-0.02,-0.0163,-0.0167,-0.0161,-0.0155,-0.0116,-0.0115,-0.0115,-0.0138,-0.0139,-0.0141,0,0,0,0,0,0,-0.0244,-0.0242,-0.0237,-0.0248,-0.0246,-0.0239,-0.0244,-0.0238,-0.023,-0.0228,-0.0203,-0.0197,-0.0183,-0.0167,-0.0172,-0.0142,-0.0135,-0.0134,-0.0154,-0.0155,-0.0156,-0.016,-0.0151,0,0,0,0,0,-0.0249,-0.0257,-0.0251,-0.0261,-0.0261,-0.0253,-0.0253,-0.025,-0.024,-0.0237,-0.0221,-0.02,-0.0178,-0.0167,-0.0151,-0.0137,-0.0111,-0.0128,-0.0129,-0.013,-0.0129,-0.0083,-0.008,-0.0114,-0.0114,-0.0114,0,0,-0.0257,-0.0257,-0.0261,-0.0264,-0.0262,-0.0267,-0.0253,-0.0259,-0.0258,-0.0232,-0.0228,-0.0208,-0.0177,-0.0161,-0.0153,-0.0147,-0.0108,-0.013,-0.0131,-0.0129,-0.0082,-0.0079,-0.0076,-0.0114,-0.0114,-0.0114,0,0,-0.0278,-0.0277,-0.0289,-0.029,-0.029,-0.0284,-0.0287,-0.0282,-0.0275,-0.027,-0.0245,-0.022,-0.02,-0.0169,-0.0151,-0.0148,-0.0119,-0.0145,-0.015,-0.0106,-0.0102,-0.0099,-0.0068,-0.0061,-0.0142,-0.0142,-0.0142,0,-0.0288,-0.0302,-0.0294,-0.0305,-0.0307,-0.0292,-0.0304,-0.0295,-0.0286,-0.0275,-0.0274,-0.0224,-0.02,-0.016,-0.0159,-0.015,-0.0127,-0.0148,-0.0107,-0.0103,-0.0099,-0.0068,-0.006,-0.0143,-0.0143,-0.0143,-0.0143,0,-0.0314,-0.0326,-0.0334,-0.034,-0.0341,-0.0351,-0.0336,-0.0333,-0.0323,-0.0306,-0.0277,-0.0241,-0.0209,-0.0193,-0.0176,-0.0134,-0.0128,-0.0117,-0.0104,-0.0097,-0.0065,-0.0057,-0.0145,-0.0145,-0.0144,-0.0144,0,0,-0.0336,-0.0351,-0.0354,-0.0364,-0.0362,-0.0367,-0.0361,-0.0349,-0.0342,-0.0319,-0.03,-0.0253,-0.023,-0.0208,-0.0175,-0.0132,-0.0086,-0.0117,-0.0114,-0.0088,0.0003,-0.0014,-0.0007,-0.0069,-0.0067,-0.0066,0.0013,0,-0.036,-0.0391,-0.0387,-0.0411,-0.0424,-0.0406,-0.0403,-0.0387,-0.0365,-0.0344,-0.0288,-0.0263,-0.0235,-0.0221,-0.0172,-0.011,-0.0065,-0.0109,-0.0006,-0.0003,-0.002,0.0002,-0.0062,0.0019,0.0021,0.0022,0.0023,0,-0.0385,-0.0403,-0.0435,-0.0447,-0.045,-0.0461,-0.0451,-0.0445,-0.0401,-0.0382,-0.0337,-0.0298,-0.0232,-0.0213,-0.0096,-0.0127,-0.0065,-0.0014,-0.001,-0.0011,-0.0005,0.0014,0.0038,0.0037,0.0036,0.0035,0.0034,0,-0.0408,-0.0435,-0.0463,-0.0469,-0.0479,-0.0487,-0.0489,-0.046,-0.0452,-0.0405,-0.0392,-0.031,-0.0273,-0.0181,-0.0082,-0.0087,0.0045,0.0053,0.01,0.0099,0.0101,0.0097,0.0142,0.0142,0.0142,0.0142,0.0141,0,-0.0431,-0.0455,-0.0482,-0.0499,-0.053,-0.0522,-0.0538,-0.0523,-0.0496,-0.0482,-0.0417,-0.0382,-0.0264,-0.0177,-0.0085,0.0028,0.0046,0.0105,0.0123,0.0087,0.0081,0.0106,0.0101,0.0145,0.0144,0.0143,0.0143,0,-0.045,-0.0467,-0.0505,-0.0532,-0.0545,-0.0569,-0.0585,-0.0588,-0.0559,-0.0538,-0.0525,-0.0431,-0.0317,-0.0198,-0.0045,0.0017,0.013,0.0167,0.0113,0.0126,0.0156,0.0149,0.0229,0.0229,0.0229,0.0229,0.0229,0,-0.046,-0.0484,-0.0538,-0.0567,-0.0586,-0.0619,-0.0639,-0.0626,-0.0621,-0.0561,-0.0547,-0.0443,-0.0368,-0.016,-0.0043,0.0128,0.0151,0.0199,0.0188,0.0157,0.0168,0.016,0.0153,0.0229,0.0229,0.023,0.023,0,-0.0478,-0.0504,-0.0536,-0.0601,-0.064,-0.0674,-0.0696,-0.0696,-0.0665,-0.0644,-0.0546,-0.0436,-0.0309,-0.0155,-0.0029,0.0095,0.0161,0.0201,0.0201,0.0192,0.0159,0.0167,0.016,0.023,0.023,0.023,0.023,0,-0.049,-0.0521,-0.0571,-0.0622,-0.0677,-0.0708,-0.0718,-0.0697,-0.0683,-0.0608,-0.0576,-0.043,-0.0345,-0.0172,-0.0051,0.0061,0.009,0.0119,0.0125,0.0126,0.0066,0.0008,0.0055,0,0,0,0,0,-0.0495,-0.0532,-0.0586,-0.0642,-0.0696,-0.0721,-0.0744,-0.0741,-0.0713,-0.0645,-0.0604,-0.0478,-0.0286,-0.02,-0.0087,-0.0064,0.0091,0.0068,0.0123,0.0233,0.0232,0.0178,0,0,0,0,0,0,-0.0501,-0.0554,-0.0583,-0.0645,-0.0682,-0.0731,-0.0745,-0.0727,-0.0678,-0.0632,-0.0523,-0.0461,-0.0271,-0.0343,-0.0084,-0.0052,-0.0006,0.0161,0.0163,0.0233,0.0232,0.0232,0.0176,0,0,0,0,0]}]]